TimeCST,TemperatureF,Dew PointF,Humidity,Sea Level PressureIn,VisibilityMPH,Wind Direction,Wind SpeedMPH,Gust SpeedMPH,PrecipitationIn,Events,Conditions,WindDirDegrees,DateUTC
12:15 AM,24.4,21.6,89,29.89,5.0,North,10.4,16.1,N/A,,Clear,360,2013-02-27 06:15:00
12:35 AM,24.3,21.4,89,29.89,5.0,North,11.5,17.3,N/A,,Scattered Clouds,360,2013-02-27 06:35:00
12:55 AM,23.7,21.0,89,29.89,5.0,North,8.1,-,N/A,,Scattered Clouds,360,2013-02-27 06:55:00
1:15 AM,23.0,20.3,89,29.90,5.0,North,9.2,-,N/A,,Clear,360,2013-02-27 07:15:00
1:35 AM,22.6,20.3,91,29.89,5.0,North,9.2,16.1,N/A,,Clear,350,2013-02-27 07:35:00
1:55 AM,22.5,19.9,90,29.89,5.0,North,11.5,-,N/A,,Clear,360,2013-02-27 07:55:00
2:15 AM,21.9,19.4,90,29.89,5.0,North,9.2,-,N/A,,Clear,350,2013-02-27 08:15:00
2:35 AM,21.7,19.4,91,29.89,5.0,Calm,Calm,-,N/A,,Clear,0,2013-02-27 08:35:00
2:55 AM,21.7,19.2,90,29.88,5.0,Calm,Calm,-,N/A,,Clear,0,2013-02-27 08:55:00
3:15 AM,21.7,19.0,89,29.87,5.0,North,9.2,-,N/A,,Clear,350,2013-02-27 09:15:00
3:35 AM,22.1,19.0,88,29.87,5.0,Calm,Calm,-,N/A,,Clear,0,2013-02-27 09:35:00
4:15 AM,21.9,18.3,86,29.87,5.0,North,10.4,-,N/A,,Clear,350,2013-02-27 10:15:00
4:35 AM,21.9,18.0,85,29.87,7.0,North,10.4,-,N/A,,Scattered Clouds,350,2013-02-27 10:35:00
4:55 AM,21.9,17.6,83,29.87,7.0,North,10.4,-,N/A,,Overcast,360,2013-02-27 10:55:00
5:15 AM,22.1,17.6,83,29.87,7.0,North,9.2,-,N/A,,Overcast,360,2013-02-27 11:15:00
5:35 AM,22.5,17.6,82,29.88,7.0,North,11.5,17.3,N/A,,Overcast,360,2013-02-27 11:35:00
6:15 AM,22.6,17.6,81,29.89,10.0,North,10.4,18.4,N/A,,Overcast,360,2013-02-27 12:15:00
6:35 AM,22.8,17.6,80,29.89,10.0,North,9.2,-,N/A,,Overcast,360,2013-02-27 12:35:00
6:55 AM,23.0,17.6,80,29.90,10.0,North,9.2,-,N/A,,Scattered Clouds,360,2013-02-27 12:55:00
7:15 AM,23.0,17.6,80,29.90,7.0,North,8.1,-,N/A,,Clear,350,2013-02-27 13:15:00
7:35 AM,23.0,17.6,80,29.91,7.0,North,9.2,-,N/A,,Clear,350,2013-02-27 13:35:00
7:55 AM,23.0,17.6,80,29.91,7.0,North,8.1,-,N/A,,Clear,350,2013-02-27 13:55:00
8:15 AM,23.7,18.1,79,29.91,7.0,North,8.1,-,N/A,,Mostly Cloudy,350,2013-02-27 14:15:00
8:35 AM,24.4,18.5,78,29.92,10.0,North,9.2,17.3,N/A,,Scattered Clouds,350,2013-02-27 14:35:00
9:15 AM,25.2,18.5,76,29.94,10.0,North,10.4,-,N/A,,Scattered Clouds,350,2013-02-27 15:15:00
9:35 AM,25.7,18.5,74,29.94,10.0,NNW,12.7,18.4,N/A,,Clear,340,2013-02-27 15:35:00
9:55 AM,26.4,18.7,73,29.94,10.0,North,18.4,21.9,N/A,,Clear,350,2013-02-27 15:55:00
10:15 AM,27.1,18.9,71,29.94,10.0,North,17.3,-,N/A,,Clear,350,2013-02-27 16:15:00
10:55 AM,28.8,19.6,69,29.94,10.0,North,16.1,24.2,N/A,,Clear,350,2013-02-27 16:55:00
11:15 AM,29.5,20.1,68,29.95,10.0,North,16.1,24.2,N/A,,Clear,350,2013-02-27 17:15:00
11:35 AM,30.6,20.7,67,29.95,10.0,North,18.4,24.2,N/A,,Clear,360,2013-02-27 17:35:00
11:55 AM,31.8,21.2,65,29.95,10.0,NNW,21.9,-,N/A,,Clear,340,2013-02-27 17:55:00
12:15 PM,32.4,21.9,65,29.94,10.0,NNW,23.0,28.8,N/A,,Clear,340,2013-02-27 18:15:00
12:35 PM,33.4,22.6,65,29.95,10.0,North,15.0,26.5,N/A,,Clear,350,2013-02-27 18:35:00
12:55 PM,33.4,22.8,65,29.94,10.0,NNW,18.4,26.5,N/A,,Clear,340,2013-02-27 18:55:00
1:15 PM,33.8,22.6,64,29.94,10.0,NNW,16.1,26.5,N/A,,Clear,340,2013-02-27 19:15:00
1:35 PM,34.5,22.6,62,29.94,10.0,NNW,16.1,21.9,N/A,,Clear,340,2013-02-27 19:35:00
1:55 PM,34.7,21.7,59,29.94,10.0,NNW,17.3,28.8,N/A,,Clear,340,2013-02-27 19:55:00
2:15 PM,35.2,23.0,61,29.94,10.0,NNW,19.6,26.5,N/A,,Clear,330,2013-02-27 20:15:00
2:35 PM,35.6,23.2,61,29.94,10.0,NNW,18.4,26.5,N/A,,Clear,330,2013-02-27 20:35:00
2:55 PM,36.1,23.9,61,29.94,10.0,NNW,19.6,27.6,N/A,,Clear,330,2013-02-27 20:55:00
3:15 PM,36.5,23.7,60,29.95,10.0,NNW,17.3,26.5,N/A,,Clear,330,2013-02-27 21:15:00
3:35 PM,36.7,24.1,60,29.95,10.0,NNW,13.8,26.5,N/A,,Clear,330,2013-02-27 21:35:00
3:55 PM,36.0,24.6,63,29.96,10.0,NNW,15.0,23.0,N/A,,Clear,330,2013-02-27 21:55:00
4:15 PM,34.7,23.7,64,29.96,10.0,NW,15.0,19.6,N/A,,Clear,320,2013-02-27 22:15:00
4:35 PM,33.3,23.0,66,29.96,10.0,NW,16.1,21.9,N/A,,Clear,320,2013-02-27 22:35:00
4:55 PM,32.2,22.1,66,29.96,10.0,NNW,16.1,26.5,N/A,,Clear,330,2013-02-27 22:55:00
5:15 PM,32.0,21.7,66,29.97,10.0,NNW,16.1,23.0,N/A,,Clear,330,2013-02-27 23:15:00
5:35 PM,31.3,20.7,65,29.98,10.0,NNW,13.8,19.6,N/A,,Clear,330,2013-02-27 23:35:00
5:55 PM,30.9,20.3,65,29.99,10.0,NNW,13.8,26.5,N/A,,Clear,330,2013-02-27 23:55:00
6:15 PM,30.7,20.5,66,29.99,10.0,NNW,12.7,-,N/A,,Clear,330,2013-02-28 00:15:00
6:35 PM,29.8,20.8,69,30.00,10.0,NNW,16.1,23.0,N/A,,Clear,330,2013-02-28 00:35:00
6:55 PM,28.9,21.2,73,30.01,10.0,Calm,Calm,-,N/A,,Clear,0,2013-02-28 00:55:00
7:15 PM,28.0,21.2,76,30.02,10.0,Calm,Calm,-,N/A,,Clear,0,2013-02-28 01:15:00
7:35 PM,27.1,21.2,78,30.02,10.0,NNW,15.0,21.9,N/A,,Clear,330,2013-02-28 01:35:00
8:15 PM,25.7,20.5,81,30.03,10.0,NNW,13.8,25.3,N/A,,Clear,330,2013-02-28 02:15:00
8:35 PM,25.2,20.1,81,30.03,10.0,NNW,16.1,19.6,N/A,,Clear,330,2013-02-28 02:35:00
8:55 PM,23.9,19.4,83,30.04,10.0,NNW,16.1,24.2,N/A,,Clear,340,2013-02-28 02:55:00
9:15 PM,23.5,19.2,84,30.04,10.0,NNW,12.7,19.6,N/A,,Clear,340,2013-02-28 03:15:00
9:35 PM,23.0,18.9,84,30.05,10.0,North,11.5,17.3,N/A,,Clear,350,2013-02-28 03:35:00
10:15 PM,23.7,19.9,85,30.05,10.0,NNW,11.5,18.4,N/A,,Overcast,340,2013-02-28 04:15:00
10:35 PM,24.3,20.3,85,30.05,10.0,NNW,13.8,18.4,N/A,,Overcast,340,2013-02-28 04:35:00
10:55 PM,24.8,21.0,86,30.05,10.0,North,11.5,-,N/A,,Overcast,350,2013-02-28 04:55:00
11:15 PM,25.5,21.6,85,30.05,10.0,NNW,11.5,18.4,N/A,,Overcast,340,2013-02-28 05:15:00
11:35 PM,25.7,21.9,86,30.06,10.0,North,11.5,18.4,N/A,,Overcast,350,2013-02-28 05:35:00